Regional Weather Roundup
Issued by NWS San Diego, CA

Home | Current Version | Previous Version | Text Only | Print | Product List | Glossary On
Versions: 1 2 3 4 5 6 7 8 9 10 11 12 13 14 15 16 17 18 19 20 21 22 23 24 25 26 27 28 29 30 31 32 33 34 35 36 37 38 39 40 41 42 43 44 45 46 47 48 49 50
000
ASUS46 KSGX 300410
RWRSGX

SAN DIEGO HOURLY WEATHER ROUNDUP
NATIONAL WEATHER SERVICE SAN DIEGO CA
900 PM PDT FRI AUG 29 2014

NOTE: "FAIR" INDICATES FEW OR NO CLOUDS BELOW 12,000 FEET WITH NO
SIGNIFICANT WEATHER AND/OR OBSTRUCTIONS TO VISIBILITY.

CAZ042-043-060-061-PZZ750-775-300500-

GREATER SAN DIEGO AREA

CITY           SKY/WX    TMP DP  RH WIND       PRES   REMARKS
LINDBERGH FLD  PTCLDY    71  64  78 NW7       29.85R
POINT LOMA       N/A     66  62  87 W13         N/A
NATIONAL CITY    N/A     71  65  81 NW2       29.84R
CHULA VISTA      N/A     70  66  85 CALM      29.77R
IMPERIAL BEACH CLEAR     69  65  86 W5        29.84S
BROWN FIELD    CLEAR     67  64  90 W6        29.85R
MIRAMAR MCAS   PTCLDY    67  62  84 W5        29.84S
MONTGOMERY FLD CLEAR     70  63  78 NW3       29.85R

$$

NORTH SAN DIEGO COUNTY

CITY           SKY/WX    TMP DP  RH WIND       PRES   REMARKS
CAMP PENDLETON MOCLDY    69  64  84 SW3       29.83R HAZE
OCEANSIDE AP   CLOUDY    71  65  81 NW3       29.83R
OCEANSIDE HBR    N/A     70  66  86 W3        29.86R
VISTA            N/A     69  64  83 CALM      29.82R
CARLSBAD       MOCLDY    70  65  84 SW3       29.83R
DEL MAR          N/A     69  65  88 CALM      29.86R
LA JOLLA SCRIP   N/A     68  66  92 W3        29.81R
FALLBROOK        N/A     69  67  95 CALM      29.82R
ESCONDIDO        N/A     72  64  76 SW2       29.84R
SAN MARCOS       N/A     69  64  82 CALM      29.81R
POWAY            N/A     69  63  82 CALM      29.84R

$$

EAST SAN DIEGO COUNTY

CITY           SKY/WX    TMP DP  RH WIND       PRES   REMARKS
RAMONA         CLEAR     69  58  67 W5        29.87R
SANTEE LAKES     N/A     69  64  82 W5        29.84R
LA MESA          N/A     70  65  83 NW2       29.77R
JAMUL            N/A     70  64  81 CALM      29.81R
DESCANSO N       N/A     69  48  46 E2        29.69R
MT. LAGUNA OBS   N/A     70  32  24 CALM      29.73R
CAMPO            N/A     70  51  51 CALM      29.90R

$$

ORANGE COUNTY AND THE LOS ANGELES BASIN

CITY           SKY/WX    TMP DP  RH WIND       PRES   REMARKS
JOHN WAYNE AP  CLEAR     73  62  68 CALM      29.83R
LAGUNA BEACH     N/A     69  63  80 CALM      29.80R
LAKE FOREST FR   N/A     70  59  69 CALM      29.74R
SANTA ANA        N/A     73  65  74 CALM      29.78R
HUNTINGTON BCH   N/A     69  65  87 W3        29.85R
LOS ALAMITOS   CLEAR     70  60  69 W5        29.83R
FULLERTON      CLEAR     75  56  51 W3        29.82R
LONG BEACH     CLEAR     71  62  73 NW7       29.83R
L.A. AP        CLEAR     68  62  81 SW5       29.83R
L.A. DOWNTOWN  CLEAR     71  62  73 CALM      29.82R

$$

THE INLAND EMPIRE

CITY           SKY/WX    TMP DP  RH WIND       PRES   REMARKS
CORONA         CLEAR     75  59  57 NW7       29.84R
CHINO          CLEAR     74  57  55 W10       29.84R
ONTARIO        CLEAR     79  58  48 W8        29.84R
SAN BERNARDINO CLEAR     81  46  30 SW6       29.85R
RIVERSIDE AP   CLEAR     78  54  43 W5        29.84R
RIV CYN CREST    N/A     81  57  44 NW1       29.81R
MORENO VALLEY    N/A     80  47  31 CALM      29.05R
MARCH ARB      CLEAR     78  44  29 W5        29.87R
HORSETHIEF CYN   N/A     76  46  35 CALM      29.82R
PERRIS           N/A     82  47  28 SW1       29.82R
MENIFEE          N/A     80  57  46 SW2       29.89R
HEMET EAST       N/A     82  42  23 CALM      29.79R
FRENCH VALLEY  FAIR      75  55  50 S5        29.86S
TEMECULA         N/A     75  61  62 SE1       29.80R

$$

SAN BERNARDINO AND RIVERSIDE COUNTY MOUNTAINS

CITY           SKY/WX    TMP DP  RH WIND       PRES   REMARKS
BIG BEAR AP    CLEAR     59  32  36 CALM      30.24R
PINE COVE        N/A     67  36  31 N1        29.73R

$$

SOUTHERN DESERT INCLUDING THE COACHELLA VALLEY

CITY           SKY/WX    TMP DP  RH WIND       PRES   REMARKS
PALM SPRINGS   CLEAR    102  41  12 NW9       29.71R HX  97
THOUSAND PALMS   N/A     98  44  15 NW13      29.64R
PALM DESERT      N/A    100  49  18 CALM      31.41S HX  96
THERMAL        CLEAR     99  46  16 N8        29.64R HX  95
BLYTHE         CLEAR     96  42  15 W5        29.68R
IMPERIAL AP    CLEAR     99  47  17 SW9       29.65R HX  95
EL CENTRO NAS  CLEAR     97  49  19 SW12      29.66R
YUMA AZ        CLEAR     99  42  14 SW3       29.67R
MEXICALI       CLEAR     97  43  15 SE6       29.66

$$

UPPER DESERT

CITY           SKY/WX    TMP DP  RH WIND       PRES   REMARKS
VICTORVILLE AP CLEAR     84  37  18 W10G16    29.94R
HESPERIA         N/A     82  37  20 NW3       29.88R
APPLE VALLEY     N/A     86  25  11 SW3       30.01R
PALMDALE       CLEAR     84  39  20 W16       29.92R
LANCASTER      CLEAR     82  38  20 W17       29.91R
EDWARDS AFB    CLEAR     85  39  19 W16       29.87R
DAGGETT        CLEAR     94  27   9 W14       29.83R
29 PALMS N     CLEAR     92  40  16 VRB3      29.89R
NEEDLES        PTCLDY    97  33  10 W7        29.72R

$$

REGIONAL REPORTS

CITY           SKY/WX    TMP DP  RH WIND       PRES   REMARKS
SANTA BARBARA  CLEAR     67  61  81 SE6       29.80R
SANDBERG       CLEAR     77  33  20 N18G26    30.09R
MT. WILSON       N/A     72  25  17 MISG        N/A
LAS VEGAS NV   PTCLDY    98  31   9 S15       29.77R
PHOENIX AZ     CLEAR     97  43  15 SW6       29.73R
TIJUANA        CLEAR     68  61  77 W8        29.87R
ENSENADA NW      N/A     70  32  24 E6        29.81R

$$

OFFSHORE ISLANDS

CITY           SKY/WX    TMP DP  RH WIND       PRES   REMARKS
CATALINA ARPT  CLEAR     73  31  21 NW9       29.89R
SAN NICOLAS IS CLEAR    N/A N/A N/A W21G28    29.84S

$$

MARINE AND OFFSHORE BUOY REPORTS

STATION/POSITION SKY/WX   TEMP    WIND        PRES    SWELL
                          AIR SEA DIR/SP/G            HT/PER/DIR
                          (F)     (DEG/KT/KT) (MB)    (FT/S/D)
TANNER BANKS               65 69  310/ 17/ 19 1011.3R   3/200/ 9
S CLEMENTE BASIN           67 72  300/ 16/ 17 1010.3R   3/160/15
SAN NICOLAS IS.               66                N/A     2/170/11
SO. S. ROSA ISLA           63 66  310/ 21/ 27 1010.1S   3/ 9
W. S. BARBARA CH           62 63  310/ 23/ 27 1009.5R   3/200/10
S. MONICA BASIN            69 72  270/ 14/ 16 1009.5R   3/200/10
S PEDRO CHANNEL               72                N/A     2/160/14
DANA POINT                    70                N/A     2/190/13
CMP PENDLETON NS              74                N/A     2/220/15
OCEANSIDE OFFSHR              74                N/A     2/210/17
TORREY PINES OTR              74                N/A     2/200/11
LA JOLLA 1                 70 71  330/  3/  6 1010.4S
MISSION BAY BUOY              70                N/A     2/220/15
SAN DIEGO BAY                 76              1010.9R
POINT LOMA SOUTH              74                N/A     2/180/17

$$




USA.gov is the U.S. government's official web portal to all federal, state and local government web resources and services.